Location: Caltech
(34.1382°N, 118.1253°W)
Time: 15:06:18
(UTC-07:00)

SEDSat Delta rocket - Visible Passes

Search period start: 23 April 2014 00:00
Search period end: 03 May 2014 00:00
Orbit: 534 x 1011 km, 31.4° (Epoch: 23 April)

Date Brightness Start Highest point End Pass type
(mag) Time Alt. Az. Time Alt. Az. Time Alt. Az.
23 Apr 5.6 05:39:00 10° S 05:41:27 14° SSE 05:44:04 10° ESE visible
24 Apr 5.7 05:01:47 10° SSE 05:02:46 11° SE 05:03:46 10° SE visible
26 Apr 4.7 05:26:58 10° SSW 05:30:46 27° SSE 05:35:01 10° E visible
27 Apr 4.7 04:49:51 16° SSW 04:52:05 22° SSE 04:55:48 10° ESE visible
28 Apr 4.8 04:13:14 18° SSE 04:13:25 19° SSE 04:16:35 10° ESE visible
29 Apr 5.5 03:36:35 12° SE 03:36:35 12° SE 03:37:18 10° ESE visible
29 Apr 3.7 05:16:50 13° SW 05:20:22 44° SSE 05:24:58 10° E visible
30 Apr 3.7 04:40:09 28° SSW 04:41:41 39° SSE 04:45:57 10° E visible
01 May 3.9 04:03:28 33° SSE 04:03:28 33° SSE 04:06:59 10° E visible
02 May 5.1 03:26:46 17° ESE 03:26:46 17° ESE 03:28:03 10° E visible
02 May 3.1 05:07:00 16° WSW 05:10:12 59° S 05:14:42 10° E visible
